| time (UTC) | temp C | wind direction | speed KPH | gust KPH | rain 1hr cm | rain 24hr cm | rain mn cm | humidity % | barometer mb |
| 20260510170151 | 19 | 185 | 4.8 | 12.9 | 0.00 | 1.02 | 0.00 | 74 | 1013.4 |
| 20260510150150 | 14 | 228 | 1.6 | 8.0 | 0.00 | 1.02 | 0.00 | 91 | 1014.1 |
| 20260510140150 | 14 | 175 | 1.6 | 8.0 | 0.00 | 1.02 | 0.00 | 90 | 1013.6 |
| 20260510130150 | 13 | 178 | 1.6 | 6.4 | 0.00 | 1.02 | 0.00 | 93 | 1013.7 |
| 20260510120151 | 12 | 256 | 0.0 | 8.0 | 0.00 | 1.02 | 0.00 | 96 | 1012.9 |
| 20260510110151 | 12 | 178 | 0.0 | 4.8 | 0.00 | 1.02 | 0.00 | 96 | 1012.7 |
| 20260510100150 | 11 | 0 | 0.0 | 0.0 | 0.00 | 1.04 | 0.00 | 96 | 1012.7 |
| 20260510093149 | 11 | 0 | 0.0 | 0.0 | 0.00 | 1.04 | 0.00 | 96 | 1013.0 |
| 20260510090150 | 11 | 0 | 0.0 | 0.0 | 0.00 | 1.04 | 0.00 | 96 | 1013.0 |
| 20260510070150 | 12 | 0 | 0.0 | 0.0 | 0.00 | 1.09 | 0.00 | 96 | 1012.4 |
| 20260510060150 | 12 | 0 | 0.0 | 0.0 | 0.00 | 1.09 | 0.00 | 96 | 1011.9 |
| 20260510053149 | 12 | 0 | 0.0 | 0.0 | 0.00 | 1.09 | 0.00 | 96 | 1012.2 |
| 20260510050149 | 12 | 0 | 0.0 | 0.0 | 0.00 | 1.09 | 0.00 | 96 | 1012.2 |
| 20260510043149 | 12 | 0 | 0.0 | 0.0 | 0.00 | 1.09 | 0.00 | 96 | 1012.2 |
| 20260510040150 | 12 | 0 | 0.0 | 0.0 | 0.00 | 1.09 | 0.00 | 96 | 1011.8 |
| 20260510030320 | 12 | 0 | 0.0 | 0.0 | 0.00 | 1.09 | 1.09 | 96 | 1012.0 |
| 20260510030150 | 12 | 0 | 0.0 | 0.0 | 0.00 | 1.09 | 1.09 | 96 | 1012.0 |
| 20260510020151 | 12 | 0 | 0.0 | 0.0 | 0.00 | 1.09 | 1.09 | 96 | 1011.9 |
| 20260510010150 | 12 | 0 | 0.0 | 0.0 | 0.00 | 1.09 | 1.09 | 96 | 1011.7 |
| 20260510000152 | 12 | 248 | 0.0 | 3.2 | 0.15 | 1.09 | 1.09 | 95 | 1011.2 |
| 20260509220150 | 13 | 233 | 0.0 | 4.8 | 0.08 | 0.58 | 0.58 | 95 | 1012.3 |
| 20260509210150 | 13 | 198 | 0.0 | 4.8 | 0.15 | 0.51 | 0.51 | 95 | 1011.9 |
| 20260509200150 | 14 | 220 | 3.2 | 8.0 | 0.13 | 0.36 | 0.36 | 92 | 1012.2 |